Location: *
(45.3667°N, 7.2667°E)
Time: 12:50:56
(UTC+00:00)

Daily predictions for brighter satellites

Satellite Brightness Start Highest point End
(mag) Time Altitude Azimuth Time Altitude Azimuth Time Altitude Azimuth
PAYLOAD B 4.4 16:42:51 10° SSE 16:48:21 86° WSW 16:53:55 10° NNW
Cosmos 2297 Rocket 4.3 16:45:08 10° W 16:49:06 19° NW 16:53:06 10° N
Cosmos 1603 3.8 16:45:15 10° NNW 16:51:00 84° ENE 16:56:44 10° SSE
Meteor 2-10 Rocket 4.4 16:46:54 10° N 16:51:41 29° ENE 16:56:17 10° SE
CZ-2D R/B 4.3 16:53:04 10° ESE 16:56:11 24° ENE 16:59:18 10° NNE
Cosmos 1606 Rocket 3.8 16:52:52 10° N 16:57:07 48° ENE 17:01:23 10° SSE
Cosmos 1892 Rocket 4.4 16:55:07 10° SSE 16:58:53 30° E 17:02:41 10° NNE
H-2A R/B 2.1 16:54:28 10° NNE 16:58:56 72° ESE 17:03:17 10° S
YAOGAN 1 4.1 16:56:18 10° E 16:59:00 16° ENE 17:01:42 10° NNE
USA 234 4.2 16:53:50 10° ENE 16:59:28 32° N 17:05:07 10° WNW
ATLAS 5 CENTAUR R/B 1.6 16:56:34 10° SW 17:00:32 74° NW 17:05:03 10° NE
FengYun 1-2 T 4.2 16:55:23 10° SSE 17:00:55 73° ENE 17:06:31 10° N
CZ-4C R/B 3.5 16:59:40 10° N 17:02:46 55° WNW 17:05:52 10° SSW
NOAA 12 4.3 16:57:38 10° SSE 17:02:51 80° WSW 17:08:07 10° NNW
SL-14 R/B 3.2 17:00:25 10° S 17:04:17 89° E 17:08:13 10° N
RESURS DK-1 3.4 17:01:59 10° SW 17:05:57 45° WNW 17:09:58 10° NNE
MOS 1 Rocket 4.1 17:04:37 10° NE 17:08:13 25° E 17:11:48 10° SSE
ATLAS 3B R/B 3.5 17:01:58 10° NW 17:08:50 60° WSW 17:15:56 10° SSE
Cosmos 2228 2.9 17:04:52 10° N 17:09:08 71° E 17:13:24 10° SSE
BREEZE-M DEB (TANK) 4.0 17:07:40 10° W 17:10:14 26° SSW 17:13:04 10° SSE
Cosmos 2142 Rocket 4.4 17:05:04 10° N 17:11:16 74° E 17:17:22 10° SSE
Meteor 2-5 Rocket 3.8 17:07:34 10° S 17:13:09 86° W 17:18:44 10° N
SKYMED 2 4.1 17:10:10 10° NNE 17:14:16 39° E 17:18:19 10° SSE
CZ-4C R/B 3.5 17:09:35 10° W 17:14:16 33° NW 17:19:50 10° NNE
Cosmos 1538 Rocket 4.2 17:10:35 10° N 17:15:34 46° ENE 17:20:32 10° SE
Aureole 3 4.4 17:13:28 10° NNE 17:15:46 16° ENE 17:17:51 10° ESE
SJ 16-02 2.6 17:12:47 10° SSE 17:16:07 22° E 17:18:57 12° NE
CZ-3B R/B 2.8 17:14:50 10° NNW 17:16:55 24° NNE 17:20:09 13° E
Cosmos 1777 Rocket 4.1 17:14:06 10° S 17:19:15 60° ESE 17:24:28 10° NNE
Cosmos 2263 Rocket 2.7 17:15:36 10° SW 17:21:13 60° WNW 17:26:51 10° NNE
Cosmos 1455 3.2 17:23:19 10° NNE 17:26:32 25° ENE 17:29:44 10° SE
Cosmos 2058 Rocket 3.2 17:24:11 10° N 17:28:35 51° ENE 17:32:58 10° SSE
Cosmos 1300 3.5 17:27:05 10° NNW 17:30:49 54° W 17:34:31 10° S
X-37B 2.2 17:29:06 10° SSW 17:31:44 24° SSE 17:33:14 17° ESE
ARGOS 3.9 17:32:39 10° ESE 17:37:14 30° ENE 17:41:49 10° N
Okean 1-7 Rocket 3.7 17:35:55 10° S 17:40:20 55° E 17:44:49 10° NNE
CREW DRAGON DEMO-1 DEB 3.8 17:38:41 10° NW 17:41:18 29° NNE 17:41:52 27° NE
Lacrosse 5 2.1 17:36:38 10° NW 17:41:35 51° NNE 17:45:00 19° ESE
ISS -3.0 17:40:42 10° SSW 17:43:52 39° SE 17:45:00 29° E
Cosmos 1726 Rocket 3.9 17:39:46 10° NNW 17:44:07 69° W 17:48:28 10° S
Cosmos 1939 Rocket 3.3 17:40:09 10° S 17:44:16 65° W 17:48:20 10° NNW
ERS-2 2.3 17:42:03 15° NNE 17:44:56 48° ESE 17:48:27 10° S
CZ-2C R/B 3.8 17:45:50 22° E 17:46:35 22° E 17:50:52 10° SE
EXPRESS MD2 4.1 17:38:45 10° WNW 17:47:17 89° SSW 17:50:21 19° ESE
PSLV R/B 4.3 17:43:31 12° NNE 17:47:18 45° E 17:51:20 10° S
Meteor 1-24 Rocket 4.3 17:42:06 10° SSW 17:47:21 56° WNW 17:52:35 10° N
COSMOS 2455 2.8 17:42:32 10° SSW 17:48:34 84° ESE 17:54:02 13° NNE
Cosmos 1626 Rocket 4.0 17:47:35 10° SSE 17:51:37 37° E 17:54:01 21° NE
Cosmos 1844 4.0 17:48:12 10° S 17:53:33 47° ESE 17:57:10 20° NE
Cosmos 1833 Rocket 4.2 17:51:15 10° N 17:54:41 18° NE 17:54:41 18° NE
IRS-1C Rocket 4.0 17:49:46 10° SSE 17:55:02 87° ENE 18:00:19 10° NNW
CZ-4 R/B 1.3 17:52:27 10° SSE 17:56:32 67° ENE 18:00:34 10° N
Cosmos 2082 Rocket 4.1 17:54:20 10° NNE 17:55:56 12° NNE 17:55:56 12° NNE
COSMO-SKYMED 1 2.9 17:58:07 10° N 18:02:26 65° WNW 18:06:43 10° SSW
USA 267 4.1 18:04:12 26° E 18:06:21 31° SE 18:12:00 10° S
CZ-4B R/B 3.1 18:09:27 10° N 18:12:31 32° WNW 18:15:30 10° SW
Okean-O 2.5 18:08:13 10° SSE 18:12:39 88° ENE 18:17:07 10° NNW
CZ-2C R/B 3.6 18:08:59 10° S 18:14:11 63° W 18:19:43 10° NNW
Cosmos 1844 Rocket 2.6 18:09:51 10° SSW 18:15:31 85° ESE 18:19:24 21° NNE
Okean O Rocket 4.5 18:12:42 10° SW 18:15:55 19° W 18:19:08 10° NW
H-2A R/B 1.8 18:11:38 10° SSE 18:16:36 84° ENE 18:21:43 10° NNW
Cosmos 923 Rocket 3.9 18:11:59 10° NNW 18:17:20 70° ENE 18:22:38 10° SSE
OE (NEXTSAT) 4.1 18:14:17 10° W 18:17:44 87° N 18:17:46 86° NNE
Meteor 1-21 Rocket 4.0 18:12:36 10° S 18:18:07 78° E 18:23:41 10° NNE
Aureole 2 Rocket 2.9 18:16:00 10° SW 18:18:55 48° WNW 18:19:28 41° NNW
Cosmos 1689 Rocket 2.7 18:20:00 47° SW 18:20:00 47° SW 18:22:11 10° SSW
ATLAS 2AS CENTAUR R/B 4.5 18:13:13 10° W 18:19:46 27° NNW 18:25:30 12° NNE
Cosmos 2195 Rocket 4.5 18:13:58 10° S 18:20:08 59° E 18:26:22 10° NNE
Cosmos 158 Rocket 3.9 18:17:23 10° NNW 18:22:45 84° ENE 18:28:09 10° SSE
Meteor 2-8 Rocket 4.4 18:17:11 10° N 18:23:11 58° ENE 18:29:12 10° SSE
Cosmos 1898 Rocket 3.8 18:18:54 10° S 18:23:42 43° ESE 18:23:42 43° ESE
Cosmos 1680 Rocket 3.4 18:19:31 10° NNW 18:24:44 61° ENE 18:26:36 38° SE
Cosmos 1627 Rocket 4.4 18:23:57 10° S 18:30:00 62° E 18:36:10 10° NNE
Cosmos 2098 Rocket 4.4 18:24:33 10° SSE 18:31:20 54° E 18:38:31 10° NNE
Cosmos 1602 Rocket 3.3 18:27:18 10° S 18:31:34 73° E 18:31:34 73° E
Cosmos 1818 3.6 18:27:10 10° SW 18:32:35 76° NW 18:34:52 36° NNE
SAR-Lupe-4 4.3 18:31:27 34° NNW 18:32:42 52° WNW 18:36:10 10° SSW
YAOGAN 1 3.2 18:30:25 10° S 18:34:39 56° W 18:38:56 10° NNW
Cosmos 1428 Rocket 4.4 18:28:50 10° S 18:35:00 64° E 18:41:15 10° NNE
CSL-04 Rocket 3.6 18:33:02 10° SSE 18:38:25 88° ENE 18:43:56 10° NNW
Helios 1A Rocket 3.4 18:35:28 10° S 18:39:33 60° WSW 18:43:41 10° NNW
USA 234 3.7 18:40:20 40° NE 18:41:33 44° NNE 18:47:41 10° NW
Cosmos 1092 Rocket 3.9 18:38:55 10° S 18:45:07 84° W 18:51:20 10° N
ATLAS 5 CENTAUR R/B 3.9 18:43:20 10° WNW 18:46:05 16° NNW 18:47:38 14° N
Iridium 4 Rocket 3.6 18:41:24 10° N 18:47:09 88° W 18:52:25 10° S
Cosmos 1812 Rocket 4.3 18:45:47 10° NNW 18:48:54 45° NNW 18:48:54 45° NNW
Cosmos 2344 4.3 18:45:17 10° NW 18:54:26 66° NE 18:59:35 39° ESE
SJ 16-02 2.6 18:50:19 10° SW 18:54:26 39° WNW 18:55:59 29° NNW
Cosmos 2112 Rocket 4.0 18:56:56 10° NNW 19:02:12 76° WSW 19:02:18 76° WSW
CZ-4C R/B 4.4 19:01:17 10° NW 19:04:55 16° N 19:06:30 15° N
X-37B 3.7 19:04:54 10° WSW 19:05:31 15° WSW 19:05:31 15° WSW
COSMOS 2406 4.2 19:11:20 10° NNW 19:14:49 37° N 19:14:49 37° N
ARGOS 4.3 19:12:17 10° SSW 19:17:19 42° W 19:22:25 10° NNW
Cosmos 44 4.4 19:15:44 10° SW 19:18:46 39° WSW 19:18:46 39° WSW
ISS -0.5 19:17:25 10° W 19:17:58 14° W 19:17:58 14° W
Lacrosse 5 3.1 19:19:50 10° WNW 19:24:15 36° WSW 19:24:15 36° WSW
CZ-2C R/B 3.2 19:27:19 57° WNW 19:27:19 57° WNW 19:32:41 10° SSW
NOSS 3-1 (C) 4.1 19:25:56 10° NW 19:33:30 78° SW 19:34:39 67° S
Cosmos 1833 Rocket 4.3 19:34:06 10° NNW 19:36:25 26° NNW 19:36:25 26° NNW
Cosmos 2082 Rocket 4.3 19:36:27 10° NNW 19:37:48 17° NNW 19:37:48 17° NNW
USA 267 3.8 19:51:34 52° WSW 19:51:34 52° WSW 19:56:21 10° WSW
USA 229 DEB 4.1 19:43:07 10° NW 19:49:18 66° WNW 19:49:18 66° WNW
USA 229 4.1 19:43:13 10° NW 19:49:21 65° NW 19:49:21 65° NW
NOSS 3-1 (A) 4.4 19:58:30 10° NW 20:04:26 59° WNW 20:04:26 59° WNW
